STARLINK-32909, 62894

Orbit data source: Space-Track

STARLINK-32909, 62894 is a payload satellite owned by SpaceX/Seattle (US) in LEO that was launched on Tue, 04 Feb 2025 UTC via an FALCON 9 launch vehicle from the Air Force Eastern Test Range (AFETR). Payload-class satellites include a variety of spacecraft equipped with specific instruments for various scientific and technological missions. These include communications satellites like Starlink; space stations such as the ISS; scientific satellites like the Hubble; Earth observation satellites from companies like Planet Labs, Umbra, and HawkEye 360; GPS; miniature CubeSats for education and research; and military/defense satellites.

Loading next visibility...
Identifier
62894, 2025-024R
Orbit
LEO
Country
Flag of USUS
Related business
Manufacturer
SpaceX/Seattle
Mission
Operational Commercial Communications
Bus & Motor
STARLINK V2M, Unknown motor
Mass
730 kg wet, ~700 kg dry
Launch date (UTC)
2025-02-04 (7 months ago)
Launch vehicle
FALCON 9
Launch site
Air Force Eastern Test Range (AFETR)
Object type
Payload
Rocket body
Debris
Shape & HBR
Box + 2 Pan, 14.5 m
Radar Cross Section
33.884 m², Large (>1 m²)

Expand to show TLE details & history
Last TLE update: 2 days ago

TLE from 2 days ago
0 STARLINK-32909
1 62894U 25024R   25259.63604883  .00024482  00000-0  89519-3 0  9998
2 62894  43.0028 228.5914 0000569 350.9329   9.1512 15.27617715 35648
Epoch: 2025-09-16T15:15Z
TLE epoch observation values (Epoch: 2025-09-16T15:15:54.618Z)
Latitude
-0.00006°
Longitude
3.79025°
Altitude
482.327 km
Speed
7.626 km/s
True Right ascension
15h 14m 21s
True Declination
0° 00' 00"
Sunlit
Object was in daylight at epoch
Visualization orbit readout
Latitude
Unknown
Longitude
Unknown
Altitude
Unknown
Speed
Unknown
Apparent Right ascension
Unknown
Apparent Declination
Unknown
Sunlit
N/A
Visualization observer readout
Local Sidereal Time
20:42:21
Azimuth
Unknown
Elevation
Unknown
Doppler factor
Unknown
Orbital elements
Apogee altitude
485.271 km
Perigee altitude
484.49 km
Semi-major axis
6,863.018 km
Eccentricity
0.00006
Inclination
43.0028°
RAAN
228.5914°
Arg. of periapsis
350.9329°
True anomaly
9.15224°
Mean anomaly
9.1512°
Eccentric anomaly
9.15172°
Mean motion
3.81742 °/min
Orbital period
94.3 mins
BSTAR
0.00089519
Loading maneuver chart data...
Computing Atmospheric mass density...
Loading historical data...
Loading historical data...
Loading historical data...
Loading historical data...
Loading historical data...
Loading historical data...
Loading historical data...

Documentation

Showing up to 5 results
|